Weather History for Akron, CO

Change the Weather History Date:

Wednesday, April 3, 2013

  Actual Average Record
Temperature  
Mean Temperature 44 °F 43 °F  
Max Temperature 55 °F 57 °F 80 °F (1943)
Min Temperature 32 °F 30 °F 15 °F (1945)
Degree Days  
Heating Degree Days 21    
Month to date heating degree days 80  
Cooling Degree Days 0    
Month to date cooling degree days 0  
Moisture  
Dew Point 33 °F    
Average Humidity 71    
Maximum Humidity 96    
Minimum Humidity 45    
Precipitation  
Precipitation T in 0.04 in 0.98 in (1986)
Month to date precipitation 0.03 0.12  
Year to date precipitation 1.64 1.73  
Sea Level Pressure  
Sea Level Pressure 30.13 in    
Wind  
Wind Speed 10 mph (South)    
Max Wind Speed 20 mph    
Max Gust Speed 82 mph    
Visibility 8 miles    
Events Fog , Snow    
T = Trace of Precipitation, MM = Missing Value Source: NWS Daily Summary

Daily Weather History Graph

Daily Weather History Graph

Search for Another Location

Airport:

Trip Planner

Search our weather history database for the weather conditions in past years. The results will help you decide how hot, cold, wet, or windy it might be!

Date:

Astronomy

Apr. 03, 2013 Rise Set
Actual Time 6:33 AM MDT 7:19 PM MDT
Civil Twilight 6:05 AM MDT 7:47 PM MDT
Nautical Twilight 5:33 AM MDT 8:19 PM MDT
Astronomical Twilight 4:59 AM MDT 8:53 PM MDT
Moon 2:16 AM MDT (4/3) 12:33 PM MDT (4/3)
Length of Visible Light 13h 41m
Length of Day
12h 46m
Last Quarter, 44% of the Moon is Illuminated
Apr 3
Last Quarter
Apr 10
New
Apr 18
First Quarter
Apr 25
Full
May 2
Last Quarter

Hourly Weather History & Observations

Time (MDT) Temp. Windchill Dew Point Humidity Pressure Visibility Wind Dir Wind Speed Gust Speed Precip Events Conditions
12:10 AM 32.0 °F 27.5 °F 30.2 °F 93% 30.14 in 0.5 mi East 4.6 mph - 0.00 in Fog , Snow Light Snow
12:53 AM 33.1 °F 26.9 °F 32.0 °F 96% 30.19 in 1.2 mi SE 6.9 mph - 0.00 in   Overcast
1:05 AM 33.8 °F 26.4 °F 32.0 °F 93% 30.14 in 1.0 mi SE 9.2 mph - N/A   Mist
1:16 AM 33.8 °F 25.8 °F 32.0 °F 93% 30.14 in 0.8 mi SSE 10.4 mph - N/A   Mist
1:23 AM 33.8 °F 23.9 °F 33.8 °F 100% 30.13 in 1.2 mi SSE 15.0 mph - N/A   Overcast
1:26 AM 33.8 °F 23.9 °F 33.8 °F 100% 30.13 in 2.0 mi SSE 15.0 mph - N/A   Overcast
1:34 AM 33.8 °F 24.3 °F 33.8 °F 100% 30.13 in 5.0 mi SSE 13.8 mph - N/A   Overcast
1:53 AM 33.1 °F 22.6 °F 32.0 °F 96% 30.16 in 8.0 mi SSE 16.1 mph - N/A   Overcast
2:53 AM 33.1 °F 24.9 °F 32.0 °F 96% 30.17 in 6.0 mi SSE 10.4 mph - N/A   Overcast
3:29 AM 33.8 °F 27.0 °F 32.0 °F 93% 30.12 in 8.0 mi South 8.1 mph - 0.00 in   Overcast
3:53 AM 33.1 °F 26.9 °F 32.0 °F 96% 30.16 in 10.0 mi SSE 6.9 mph - 0.00 in   Overcast
4:36 AM 33.8 °F 27.7 °F 30.2 °F 87% 30.12 in 10.0 mi SSE 6.9 mph - N/A   Overcast
4:53 AM 32.0 °F 24.2 °F 30.9 °F 96% 30.17 in 10.0 mi SSE 9.2 mph - N/A   Overcast
5:30 AM 32.0 °F 24.8 °F 30.2 °F 93% 30.12 in 10.0 mi SSE 8.1 mph - N/A   Overcast
5:53 AM 32.0 °F 23.0 °F 30.9 °F 96% 30.17 in 10.0 mi SSE 11.5 mph - N/A   Overcast
6:18 AM 32.0 °F 24.2 °F 30.2 °F 93% 30.12 in 10.0 mi SSE 9.2 mph - N/A   Overcast
6:28 AM 32.0 °F 23.6 °F 30.2 °F 93% 30.13 in 10.0 mi SSE 10.4 mph - N/A   Overcast
6:53 AM 32.0 °F 23.0 °F 30.9 °F 96% 30.18 in 10.0 mi South 11.5 mph - N/A   Overcast
7:51 AM 33.8 °F 26.4 °F 30.2 °F 87% 30.14 in 10.0 mi SSE 9.2 mph - N/A   Overcast
7:53 AM 33.1 °F 24.9 °F 30.9 °F 92% 30.19 in 10.0 mi SSE 10.4 mph - N/A   Overcast
8:23 AM 33.8 °F 25.8 °F 32.0 °F 93% 30.15 in 10.0 mi South 10.4 mph - N/A   Overcast
8:53 AM 34.0 °F 25.0 °F 32.0 °F 92% 30.20 in 10.0 mi SSE 12.7 mph - N/A   Overcast
9:53 AM 37.0 °F 27.4 °F 33.1 °F 86% 30.18 in 10.0 mi South 17.3 mph - N/A   Mostly Cloudy
10:05 AM 37.4 °F 28.2 °F 33.8 °F 87% 30.14 in 10.0 mi South 16.1 mph - N/A   Mostly Cloudy
10:53 AM 41.0 °F 33.5 °F 35.1 °F 79% 30.17 in 10.0 mi South 13.8 mph - N/A   Overcast
11:09 AM 42.8 °F 36.2 °F 35.6 °F 76% 30.14 in 10.0 mi South 12.7 mph - N/A   Overcast
11:41 AM 42.8 °F 36.2 °F 35.6 °F 76% 30.13 in 10.0 mi South 12.7 mph - N/A   Overcast
11:53 AM 44.1 °F 38.1 °F 36.0 °F 73% 30.16 in 10.0 mi South 11.5 mph - N/A   Overcast
12:53 PM 45.0 °F 41.2 °F 35.1 °F 68% 30.14 in 10.0 mi SSW 6.9 mph - N/A   Overcast
1:53 PM 46.9 °F - 34.0 °F 61% 30.12 in 10.0 mi South 8.1 mph - N/A   Overcast
2:30 PM 50.0 °F - 35.6 °F 58% 30.09 in 10.0 mi SSW 11.5 mph - N/A   Mostly Cloudy
2:53 PM 51.1 °F - 34.0 °F 52% 30.09 in 10.0 mi South 6.9 mph - N/A   Scattered Clouds
3:53 PM 53.1 °F - 34.0 °F 48% 30.06 in 10.0 mi South 4.6 mph - N/A   Clear
4:53 PM 54.0 °F - 33.1 °F 45% 30.05 in 10.0 mi Calm Calm - N/A   Clear
5:53 PM 54.0 °F - 32.0 °F 43% 30.05 in 10.0 mi SW 6.9 mph - N/A   Clear
6:53 PM 52.0 °F - 33.1 °F 49% 30.05 in 10.0 mi SSE 6.9 mph - N/A   Clear
7:53 PM 46.9 °F - 33.1 °F 59% 30.06 in 10.0 mi SSE 18.4 mph - N/A   Clear
8:53 PM 42.1 °F 35.7 °F 33.1 °F 70% 30.10 in 10.0 mi South 11.5 mph - N/A   Clear
9:53 PM 39.9 °F 33.4 °F 32.0 °F 73% 30.12 in 10.0 mi SSW 10.4 mph - N/A   Clear
10:53 PM 39.9 °F 31.8 °F 32.0 °F 73% 30.10 in 10.0 mi SW 15.0 mph - N/A   Clear
11:53 PM 39.9 °F 32.5 °F 30.9 °F 70% 30.09 in 10.0 mi SW 12.7 mph - N/A   Partly Cloudy